Location: Banios
(43.0451°N, 0.2335°E)
Time: 19:17:06
(UTC+00:00)

A-11 Canister half - Pass Details

Date: 08 December 2021
Orbit: 1516 x 1684 km, 47.2° (Epoch: 23 January)

Event Time Altitude Azimuth Distance (km) Brightness Sun altitude
Exits shadow 03:38:55 - 185° (S) 4,417 11.3 -39.1°
Reaches altitude 10° 03:41:46 10° 174° (S) 3,727 11.0 -38.6°
Maximum altitude 03:48:35 23° 127° (SE) 2,897 10.8 -37.4°
Drops below altitude 10° 03:55:32 10° 81° (E) 3,835 11.8 -36.1°
Sets 03:59:32 0° 68° (ENE) 4,853 12.5 -35.4°
